This is the latest recevied weather packets stored in our database for station/object VA3BOO. If no packets are shown the sender has not sent any weather packets the latest 10 day(s).
| Time | Temp. | Humidity | Pressure | Rain* | Wind** | Luminosity | Snow |
|---|---|---|---|---|---|---|---|
| 1777999204 | 16.67° C | 67% | 1002.3 hPa | 0 mm | - | 103 W/m² | - |
| 1777998905 | 16.67° C | 68% | 1002.3 hPa | 0 mm | - | 150 W/m² | - |
| 1777998605 | 16.67° C | 67% | 1002.3 hPa | 0 mm | - | 148 W/m² | - |
| 1777998305 | 16.67° C | 67% | 1002.1 hPa | 0 mm | - | 154 W/m² | - |
| 1777998005 | 16.67° C | 68% | 1001.9 hPa | 0 mm | - | 206 W/m² | - |
| 1777997705 | 16.67° C | 67% | 1001.7 hPa | 0 mm | - | 183 W/m² | - |
| 1777997405 | 16.67° C | 68% | 1001.7 hPa | 0 mm | - | 166 W/m² | - |
| 1777997105 | 16.11° C | 69% | 1001.7 hPa | 0 mm | - | 128 W/m² | - |
| 1777996805 | 16.11° C | 70% | 1001.7 hPa | 0 mm | - | 94 W/m² | - |
| 1777996505 | 15.56° C | 71% | 1001.5 hPa | 0 mm | - | 92 W/m² | - |
| 1777996204 | 16.11° C | 70% | 1001.6 hPa | 0 mm | - | 66 W/m² | - |
| 1777995905 | 16.67° C | 69% | 1001.5 hPa | 0 mm | - | 54 W/m² | - |
| 1777995605 | 16.67° C | 68% | 1001.6 hPa | 0 mm | - | 46 W/m² | - |
| 1777995305 | 17.22° C | 68% | 1001.6 hPa | 0 mm | - | 51 W/m² | - |
| 1777995005 | 17.22° C | 67% | 1001.8 hPa | 0 mm | - | 46 W/m² | - |
| 1777994704 | 17.78° C | 67% | 1001.7 hPa | 0 mm | - | 54 W/m² | - |
| 1777994404 | 17.78° C | 66% | 1001.7 hPa | 0 mm | - | 74 W/m² | - |
| 1777994105 | 17.78° C | 65% | 1001.8 hPa | 0 mm | - | 132 W/m² | - |
| 1777993804 | 18.33° C | 64% | 1001.7 hPa | 0 mm | - | 93 W/m² | - |
| 1777993504 | 18.33° C | 64% | 1001.5 hPa | 0 mm | - | 184 W/m² | - |
| 1777993204 | 18.89° C | 64% | 1001.5 hPa | 0 mm | - | 182 W/m² | - |
| 1777992905 | 18.89° C | 64% | 1001.4 hPa | 0 mm | - | 248 W/m² | - |
| 1777992605 | 18.89° C | 62% | 1001.2 hPa | 0 mm | - | 328 W/m² | - |
| 1777992304 | 18.89° C | 62% | 1001.1 hPa | 0 mm | - | 317 W/m² | - |
| 1777992005 | 18.33° C | 63% | 1000.8 hPa | 0 mm | - | 307 W/m² | - |
* Rain latest hour (hover to see other rain measurements)
** Current wind speed in m/s (hover to see current wind gust speed)